Regional Weather Roundup
Issued by NWS Goodland, KS

Home | Current Version | Previous Version | Graphics & Text | Print | Product List | Glossary On
Versions: 1 2 3 4 5 6 7 8 9 10 11 12 13 14 15 16 17 18 19 20 21 22 23 24 25 26 27 28 29 30 31 32 33 34 35 36 37 38 39 40 41 42 43 44 45 46 47 48 49 50
000
ASUS43 KGLD 041508
RWRGLD

GOODLAND FORECAST AREA HOURLY WEATHER ROUNDUP
NATIONAL WEATHER SERVICE GOODLAND KS
800 AM MST WED MAR 04 2015

...OFFICIAL OBSERVATIONS...

CITY           SKY/WX    TMP DP  RH WIND       PRES   REMARKS
GOODLAND KS    CLOUDY    17  13  84 N9        30.22R
HILL CITY KS   CLOUDY    21  13  71 N7        30.31R
IMPERIAL NEB     N/A     13   4  67 NW6       30.23R
MCCOOK NEB     PTSUNNY   19  12  74 NW6       30.27R
AKRON CO       MOSUNNY   11   7  84 W7        30.16R
BURLINGTON CO  CLOUDY    15   4  61 N14       30.18R WCI   0
LIMON CO       LGT SNOW   9   5  84 N6        30.13R FOG
$$

...UNOFFICIAL OBSERVATIONS...

CITY           SKY/WX    TMP DP  RH WIND       PRES   REMARKS
COLBY KS       LGT SNOW  19  18  93 NW5       30.26R
GOVE KS          N/A     18  32 100 MISG        N/A
LENORA KS        N/A     17  32 100 S8          N/A
NORTON KS      SUNNY     18  10  73 W8        30.29R
SHARON SPRINGS   N/A     17  14  89 CALM        N/A
TRIBUNE KS     CLOUDY    19  18  93 N13       30.23  WCI   7
KIT CARSON CO    N/A     14  11  87 MISG        N/A
YUMA CO          N/A     11   6  81 N7          N/A
$$


USA.gov is the U.S. government's official web portal to all federal, state and local government web resources and services.